Location: Newark
(39.2833°N, 16.3333°E)
Time: 07:58:45
(UTC+00:00)

Envisat - Pass Details

Date: 22 October 2019
Orbit: 764 x 766 km, 98.1° (Epoch: 20 November)

Event Time Altitude Azimuth Distance (km) Brightness Sun altitude
Rises 17:53:01 0° 195° (SSW) 3,218 6.4 -21.3°
Reaches altitude 10° 17:55:39 10° 208° (SSW) 2,296 5.8 -21.8°
Maximum altitude 17:59:53 27° 265° (W) 1,452 5.1 -22.6°
Drops below altitude 10° 18:04:10 10° 322° (NW) 2,310 6.0 -23.4°
Sets 18:06:49 0° 335° (NNW) 3,240 6.6 -23.9°
